| time (UTC) | temp C | wind direction | speed KPH | gust KPH | rain 1hr cm | rain 24hr cm | rain mn cm | humidity % | barometer mb |
| 20260904161836 | 26 | 57 | 8.0 | 9.7 | 0.00 | 0.00 | 0.00 | 70 | 1008.9 |
| 20260904161331 | 25 | 292 | 4.8 | 6.4 | 0.00 | 0.00 | 0.00 | 71 | 1009.0 |
| 20260904160827 | 26 | 301 | 6.4 | 9.7 | 0.00 | 0.00 | 0.00 | 69 | 1009.0 |
| 20260904160327 | 26 | 260 | 3.2 | 3.2 | 0.00 | 0.00 | 0.00 | 72 | 1008.9 |
| 20260904155822 | 25 | 339 | 1.6 | 1.6 | 0.00 | 0.00 | 0.00 | 75 | 1009.3 |
| 20260904155316 | 25 | 296 | 3.2 | 4.8 | 0.00 | 0.00 | 0.00 | 75 | 1009.2 |
| 20260904154815 | 26 | 287 | 4.8 | 4.8 | 0.00 | 0.00 | 0.00 | 73 | 1009.1 |
| 20260904154310 | 25 | 335 | 3.2 | 4.8 | 0.00 | 0.00 | 0.00 | 78 | 1009.2 |
| 20260904153806 | 26 | 290 | 4.8 | 4.8 | 0.00 | 0.00 | 0.00 | 73 | 1009.2 |
| 20260904153301 | 25 | 20 | 1.6 | 1.6 | 0.00 | 0.00 | 0.00 | 77 | 1009.3 |
| 20260904152757 | 25 | 3 | 3.2 | 3.2 | 0.00 | 0.00 | 0.00 | 76 | 1009.3 |
| 20260904152252 | 25 | 277 | 1.6 | 1.6 | 0.00 | 0.00 | 0.00 | 79 | 1009.1 |
| 20260904151747 | 25 | 289 | 3.2 | 3.2 | 0.00 | 0.00 | 0.00 | 80 | 1009.5 |
| 20260904151246 | 24 | 258 | 0.0 | 0.0 | 0.00 | 0.00 | 0.00 | 82 | 1009.5 |
| 20260904150742 | 23 | 269 | 1.6 | 1.6 | 0.00 | 0.00 | 0.00 | 84 | 1009.5 |
| 20260904150237 | 24 | 271 | 3.2 | 3.2 | 0.00 | 0.00 | 0.00 | 83 | 1009.6 |
| 20260904145735 | 24 | 266 | 1.6 | 3.2 | 0.00 | 0.00 | 0.00 | 83 | 1009.4 |
| 20260904145231 | 23 | 224 | 3.2 | 3.2 | 0.00 | 0.00 | 0.00 | 83 | 1009.4 |
| 20260904144726 | 24 | 251 | 1.6 | 3.2 | 0.00 | 0.00 | 0.00 | 85 | 1009.5 |
| 20260904144222 | 23 | 305 | 0.0 | 0.0 | 0.00 | 0.00 | 0.00 | 86 | 1009.6 |
| 20260904143717 | 23 | 272 | 0.0 | 0.0 | 0.00 | 0.00 | 0.00 | 86 | 1009.5 |
| 20260904143214 | 23 | 291 | 0.0 | 0.0 | 0.00 | 0.00 | 0.00 | 87 | 1009.6 |
| 20260904142710 | 22 | 232 | 1.6 | 1.6 | 0.00 | 0.00 | 0.00 | 88 | 1009.7 |
| 20260904142206 | 22 | 252 | 1.6 | 1.6 | 0.00 | 0.00 | 0.00 | 89 | 1009.8 |
| 20260904141705 | 22 | 283 | 0.0 | 0.0 | 0.00 | 0.00 | 0.00 | 89 | 1009.9 |
| 20260904141201 | 22 | 222 | 1.6 | 1.6 | 0.00 | 0.00 | 0.00 | 91 | 1009.9 |
| 20260904140657 | 21 | 259 | 0.0 | 1.6 | 0.00 | 0.00 | 0.00 | 90 | 1009.7 |
| 20260904140151 | 22 | 317 | 3.2 | 3.2 | 0.00 | 0.00 | 0.00 | 90 | 1009.6 |
| 20260904135650 | 21 | 255 | 0.0 | 0.0 | 0.00 | 0.00 | 0.00 | 92 | 1009.9 |
| 20260904135146 | 21 | 293 | 0.0 | 1.6 | 0.00 | 0.00 | 0.00 | 94 | 1009.8 |
| 20260904134642 | 21 | 246 | 1.6 | 3.2 | 0.00 | 0.00 | 0.00 | 95 | 1009.8 |
| 20260904134141 | 20 | 20 | 1.6 | 1.6 | 0.00 | 0.00 | 0.00 | 96 | 1009.6 |
| 20260904133636 | 20 | 257 | 1.6 | 1.6 | 0.00 | 0.00 | 0.00 | 98 | 1009.8 |
| 20260904133132 | 20 | 246 | 1.6 | 1.6 | 0.00 | 0.00 | 0.00 | 99 | 1009.9 |
| 20260904132631 | 20 | 254 | 1.6 | 1.6 | 0.00 | 0.00 | 0.00 | 98 | 1009.7 |
| 20260904132126 | 19 | 249 | 1.6 | 1.6 | 0.00 | 0.00 | 0.00 | 99 | 1009.8 |
| 20260904131626 | 18 | 308 | 0.0 | 1.6 | 0.00 | 0.00 | 0.00 | 99 | 1010.0 |
| 20260904131122 | 18 | 277 | 0.0 | 0.0 | 0.00 | 0.00 | 0.00 | 99 | 1009.6 |
| 20260904130621 | 18 | 281 | 0.0 | 0.0 | 0.00 | 0.00 | 0.00 | 99 | 1009.7 |
| 20260904130116 | 18 | 303 | 1.6 | 1.6 | 0.00 | 0.00 | 0.00 | 99 | 1009.9 |
| 20260904125613 | 18 | 357 | 0.0 | 0.0 | 0.00 | 0.00 | 0.00 | 99 | 1009.8 |
| 20260904125112 | 18 | 277 | 1.6 | 1.6 | 0.00 | 0.00 | 0.00 | 99 | 1009.8 |
| 20260904124608 | 17 | 320 | 0.0 | 0.0 | 0.00 | 0.00 | 0.00 | 99 | 1009.8 |
| 20260904124103 | 17 | 307 | 1.6 | 1.6 | 0.00 | 0.00 | 0.00 | 99 | 1009.9 |
| 20260904123603 | 17 | 305 | 0.0 | 0.0 | 0.00 | 0.00 | 0.00 | 99 | 1009.8 |
| 20260904123059 | 18 | 294 | 0.0 | 0.0 | 0.00 | 0.00 | 0.00 | 99 | 1009.9 |
| 20260904122554 | 17 | 287 | 0.0 | 0.0 | 0.00 | 0.00 | 0.00 | 99 | 1009.8 |
| 20260904122049 | 17 | 287 | 0.0 | 0.0 | 0.00 | 0.00 | 0.00 | 99 | 1010.1 |
| 20260904121544 | 17 | 283 | 0.0 | 0.0 | 0.00 | 0.00 | 0.00 | 99 | 1009.8 |
| 20260904121040 | 17 | 263 | 1.6 | 1.6 | 0.00 | 0.00 | 0.00 | 99 | 1009.9 |
| 20260904120536 | 17 | 286 | 0.0 | 0.0 | 0.00 | 0.00 | 0.00 | 99 | 1009.9 |
| 20260904120032 | 17 | 296 | 0.0 | 0.0 | 0.00 | 0.00 | 0.00 | 99 | 1009.9 |
| 20260904115526 | 17 | 288 | 0.0 | 0.0 | 0.00 | 0.00 | 0.00 | 99 | 1009.8 |
| 20260904115020 | 17 | 296 | 0.0 | 0.0 | 0.00 | 0.00 | 0.00 | 99 | 1009.9 |
| 20260904114515 | 17 | 296 | 0.0 | 0.0 | 0.00 | 0.00 | 0.00 | 99 | 1009.9 |
| 20260904114011 | 17 | 294 | 0.0 | 0.0 | 0.00 | 0.00 | 0.00 | 99 | 1009.9 |
| 20260904113510 | 17 | 299 | 0.0 | 0.0 | 0.00 | 0.00 | 0.00 | 99 | 1010.0 |
| 20260904113009 | 17 | 294 | 0.0 | 0.0 | 0.00 | 0.00 | 0.00 | 99 | 1009.7 |
| 20260904112505 | 17 | 276 | 0.0 | 0.0 | 0.00 | 0.00 | 0.00 | 99 | 1009.7 |
| 20260904111955 | 17 | 297 | 0.0 | 0.0 | 0.00 | 0.00 | 0.00 | 99 | 1009.7 |
| 20260904111450 | 17 | 282 | 0.0 | 0.0 | 0.00 | 0.00 | 0.00 | 99 | 1009.8 |
| 20260904110941 | 17 | 300 | 0.0 | 0.0 | 0.00 | 0.00 | 0.00 | 99 | 1009.7 |
| 20260904110439 | 17 | 286 | 0.0 | 0.0 | 0.00 | 0.00 | 0.00 | 99 | 1009.9 |
| 20260904105935 | 17 | 308 | 0.0 | 0.0 | 0.00 | 0.00 | 0.00 | 99 | 1009.6 |
| 20260904105430 | 17 | 313 | 0.0 | 0.0 | 0.00 | 0.00 | 0.00 | 99 | 1009.8 |
| 20260904104924 | 17 | 304 | 0.0 | 1.6 | 0.00 | 0.00 | 0.00 | 99 | 1009.8 |
| 20260904104424 | 17 | 301 | 0.0 | 0.0 | 0.00 | 0.00 | 0.00 | 99 | 1009.7 |
| 20260904103921 | 17 | 299 | 0.0 | 0.0 | 0.00 | 0.00 | 0.00 | 99 | 1009.8 |
| 20260904103417 | 17 | 304 | 0.0 | 0.0 | 0.00 | 0.00 | 0.00 | 99 | 1009.4 |
| 20260904102913 | 17 | 288 | 0.0 | 0.0 | 0.00 | 0.00 | 0.00 | 99 | 1009.5 |
| 20260904102408 | 17 | 350 | 1.6 | 3.2 | 0.00 | 0.00 | 0.00 | 99 | 1009.6 |
| 20260904101904 | 17 | 306 | 0.0 | 0.0 | 0.00 | 0.00 | 0.00 | 99 | 1009.5 |
| 20260904101400 | 17 | 259 | 1.6 | 1.6 | 0.00 | 0.00 | 0.00 | 99 | 1009.5 |
| 20260904100855 | 17 | 304 | 0.0 | 1.6 | 0.00 | 0.00 | 0.00 | 99 | 1009.5 |
| 20260904100351 | 17 | 291 | 0.0 | 0.0 | 0.00 | 0.00 | 0.00 | 99 | 1009.6 |
| 20260904095845 | 17 | 302 | 0.0 | 0.0 | 0.00 | 0.00 | 0.00 | 99 | 1009.4 |
| 20260904095340 | 17 | 296 | 0.0 | 0.0 | 0.00 | 0.00 | 0.00 | 99 | 1009.5 |
| 20260904094835 | 17 | 294 | 0.0 | 0.0 | 0.00 | 0.00 | 0.00 | 99 | 1009.4 |
| 20260904094330 | 17 | 295 | 0.0 | 0.0 | 0.00 | 0.00 | 0.00 | 99 | 1009.3 |
| 20260904093826 | 17 | 291 | 0.0 | 0.0 | 0.00 | 0.00 | 0.00 | 99 | 1009.5 |
| 20260904093321 | 17 | 275 | 1.6 | 3.2 | 0.00 | 0.00 | 0.00 | 99 | 1009.5 |
| 20260904092816 | 17 | 319 | 0.0 | 0.0 | 0.00 | 0.00 | 0.00 | 99 | 1009.4 |
| 20260904092313 | 17 | 303 | 1.6 | 1.6 | 0.00 | 0.00 | 0.00 | 99 | 1009.3 |
| 20260904091808 | 17 | 306 | 0.0 | 0.0 | 0.00 | 0.00 | 0.00 | 99 | 1009.4 |
| 20260904091303 | 17 | 305 | 0.0 | 0.0 | 0.00 | 0.00 | 0.00 | 99 | 1009.4 |
| 20260904090758 | 17 | 298 | 0.0 | 0.0 | 0.00 | 0.00 | 0.00 | 99 | 1009.2 |
| 20260904090254 | 17 | 297 | 0.0 | 0.0 | 0.00 | 0.00 | 0.00 | 99 | 1009.5 |
| 20260904085749 | 17 | 301 | 0.0 | 0.0 | 0.00 | 0.00 | 0.00 | 99 | 1009.3 |
| 20260904085244 | 17 | 293 | 0.0 | 0.0 | 0.00 | 0.00 | 0.00 | 99 | 1009.4 |
| 20260904084739 | 17 | 302 | 0.0 | 0.0 | 0.00 | 0.00 | 0.00 | 99 | 1009.5 |
| 20260904084234 | 17 | 283 | 0.0 | 0.0 | 0.00 | 0.00 | 0.00 | 99 | 1009.3 |
| 20260904083730 | 17 | 296 | 0.0 | 0.0 | 0.00 | 0.00 | 0.00 | 99 | 1009.3 |
| 20260904083226 | 17 | 296 | 0.0 | 0.0 | 0.00 | 0.00 | 0.00 | 99 | 1009.3 |
| 20260904082721 | 17 | 304 | 0.0 | 0.0 | 0.00 | 0.00 | 0.00 | 99 | 1009.4 |
| 20260904082216 | 17 | 304 | 0.0 | 0.0 | 0.00 | 0.00 | 0.00 | 99 | 1009.4 |
| 20260904081712 | 17 | 299 | 0.0 | 0.0 | 0.00 | 0.00 | 0.00 | 99 | 1009.4 |
| 20260904081207 | 17 | 299 | 0.0 | 0.0 | 0.00 | 0.00 | 0.00 | 99 | 1009.4 |
| 20260904080702 | 17 | 299 | 0.0 | 0.0 | 0.00 | 0.00 | 0.00 | 99 | 1009.5 |
| 20260904080152 | 17 | 299 | 0.0 | 0.0 | 0.00 | 0.00 | 0.00 | 99 | 1009.5 |
| 20260904075649 | 17 | 306 | 0.0 | 0.0 | 0.00 | 0.00 | 0.00 | 99 | 1009.6 |
| 20260904075149 | 17 | 315 | 0.0 | 0.0 | 0.00 | 0.00 | 0.00 | 99 | 1009.7 |
| 20260904074643 | 17 | 311 | 0.0 | 0.0 | 0.00 | 0.00 | 0.00 | 99 | 1009.6 |
| 20260904074137 | 17 | 303 | 0.0 | 0.0 | 0.00 | 0.00 | 0.00 | 99 | 1009.7 |
| 20260904073632 | 17 | 303 | 0.0 | 0.0 | 0.00 | 0.00 | 0.00 | 99 | 1009.7 |
| 20260904073129 | 17 | 306 | 0.0 | 0.0 | 0.00 | 0.00 | 0.00 | 99 | 1009.8 |
| 20260904072625 | 17 | 298 | 0.0 | 0.0 | 0.00 | 0.00 | 0.00 | 99 | 1009.7 |
| 20260904072119 | 17 | 306 | 0.0 | 0.0 | 0.00 | 0.00 | 0.00 | 99 | 1009.8 |
| 20260904071615 | 16 | 307 | 0.0 | 0.0 | 0.00 | 0.00 | 0.00 | 99 | 1010.1 |
| 20260904071109 | 16 | 307 | 0.0 | 0.0 | 0.00 | 0.00 | 0.00 | 99 | 1009.7 |
| 20260904070609 | 17 | 310 | 0.0 | 0.0 | 0.00 | 0.00 | 0.00 | 99 | 1009.8 |
| 20260904065552 | 17 | 313 | 0.0 | 0.0 | 0.00 | 0.00 | 0.00 | 99 | 1009.9 |
| 20260904065049 | 17 | 306 | 0.0 | 0.0 | 0.00 | 0.00 | 0.00 | 99 | 1009.9 |
| 20260904064545 | 16 | 302 | 0.0 | 0.0 | 0.00 | 0.00 | 0.00 | 99 | 1010.1 |
| 20260904064044 | 16 | 292 | 0.0 | 0.0 | 0.00 | 0.00 | 0.00 | 99 | 1009.9 |
| 20260904063541 | 16 | 298 | 0.0 | 0.0 | 0.00 | 0.00 | 0.00 | 99 | 1010.1 |
| 20260904063036 | 16 | 299 | 0.0 | 0.0 | 0.00 | 0.00 | 0.00 | 99 | 1010.1 |
| 20260904062532 | 16 | 284 | 0.0 | 0.0 | 0.00 | 0.00 | 0.00 | 99 | 1010.4 |
| 20260904062027 | 16 | 300 | 0.0 | 0.0 | 0.00 | 0.00 | 0.00 | 99 | 1010.2 |
| 20260904061523 | 16 | 300 | 0.0 | 0.0 | 0.00 | 0.00 | 0.00 | 99 | 1010.4 |
| 20260904061019 | 16 | 302 | 0.0 | 0.0 | 0.00 | 0.00 | 0.00 | 99 | 1010.6 |
| 20260904060515 | 16 | 308 | 0.0 | 0.0 | 0.00 | 0.00 | 0.00 | 99 | 1010.6 |
| 20260904060011 | 16 | 302 | 0.0 | 0.0 | 0.00 | 0.00 | 0.00 | 99 | 1010.5 |
| 20260904055506 | 16 | 301 | 0.0 | 0.0 | 0.00 | 0.00 | 0.00 | 99 | 1010.4 |
| 20260904055002 | 16 | 304 | 0.0 | 0.0 | 0.00 | 0.00 | 0.00 | 99 | 1010.9 |
| 20260904054457 | 16 | 302 | 0.0 | 0.0 | 0.00 | 0.00 | 0.00 | 99 | 1010.9 |
| 20260904053953 | 16 | 320 | 0.0 | 0.0 | 0.00 | 0.00 | 0.00 | 99 | 1010.8 |
| 20260904053452 | 16 | 298 | 0.0 | 0.0 | 0.00 | 0.00 | 0.00 | 99 | 1011.1 |
| 20260904052948 | 16 | 308 | 0.0 | 0.0 | 0.00 | 0.00 | 0.00 | 99 | 1011.1 |
| 20260904052444 | 16 | 308 | 0.0 | 0.0 | 0.00 | 0.00 | 0.00 | 99 | 1011.3 |
| 20260904051940 | 16 | 311 | 0.0 | 0.0 | 0.00 | 0.00 | 0.00 | 99 | 1011.2 |
| 20260904051437 | 16 | 305 | 0.0 | 0.0 | 0.00 | 0.00 | 0.00 | 99 | 1011.3 |
| 20260904050935 | 16 | 305 | 0.0 | 0.0 | 0.00 | 0.00 | 0.00 | 99 | 1011.5 |
| 20260904050432 | 16 | 305 | 0.0 | 0.0 | 0.00 | 0.00 | 0.00 | 99 | 1011.3 |
| 20260904045932 | 16 | 311 | 0.0 | 0.0 | 0.00 | 0.00 | 0.00 | 99 | 1011.0 |
| 20260904045426 | 16 | 311 | 0.0 | 0.0 | 0.00 | 0.00 | 0.00 | 99 | 1011.2 |
| 20260904044921 | 16 | 311 | 0.0 | 0.0 | 0.00 | 0.00 | 0.00 | 99 | 1011.3 |
| 20260904044418 | 16 | 303 | 0.0 | 0.0 | 0.00 | 0.00 | 0.00 | 99 | 1011.2 |
| 20260904043913 | 16 | 303 | 0.0 | 0.0 | 0.00 | 0.00 | 0.00 | 99 | 1011.3 |
| 20260904043410 | 16 | 301 | 0.0 | 0.0 | 0.00 | 0.00 | 0.00 | 99 | 1011.4 |
| 20260904042904 | 16 | 313 | 0.0 | 0.0 | 0.00 | 0.00 | 0.00 | 99 | 1011.2 |
| 20260904042400 | 16 | 310 | 0.0 | 0.0 | 0.00 | 0.00 | 0.00 | 99 | 1011.3 |
| 20260904041856 | 16 | 301 | 0.0 | 0.0 | 0.00 | 0.00 | 0.00 | 99 | 1011.4 |
| 20260904041352 | 16 | 316 | 0.0 | 0.0 | 0.00 | 0.00 | 0.00 | 99 | 1011.4 |
| 20260904040848 | 16 | 320 | 0.0 | 0.0 | 0.00 | 0.00 | 0.00 | 99 | 1011.8 |
| 20260904040343 | 16 | 303 | 0.0 | 0.0 | 0.00 | 0.00 | 0.00 | 99 | 1011.6 |
| 20260904035839 | 16 | 307 | 0.0 | 0.0 | 0.00 | 0.18 | 0.18 | 99 | 1011.7 |
| 20260904035335 | 16 | 297 | 0.0 | 0.0 | 0.00 | 0.18 | 0.18 | 99 | 1011.7 |
| 20260904034833 | 16 | 297 | 0.0 | 0.0 | 0.00 | 0.18 | 0.18 | 99 | 1011.7 |
| 20260904034329 | 16 | 296 | 0.0 | 0.0 | 0.00 | 0.18 | 0.18 | 99 | 1011.8 |
| 20260904033825 | 16 | 319 | 0.0 | 0.0 | 0.00 | 0.18 | 0.18 | 99 | 1011.7 |
| 20260904033321 | 16 | 296 | 0.0 | 0.0 | 0.00 | 0.18 | 0.18 | 99 | 1011.7 |
| 20260904032817 | 16 | 296 | 0.0 | 0.0 | 0.00 | 0.18 | 0.18 | 99 | 1011.6 |
| 20260904032317 | 16 | 296 | 0.0 | 0.0 | 0.00 | 0.18 | 0.18 | 99 | 1011.7 |
| 20260904031811 | 16 | 296 | 0.0 | 0.0 | 0.00 | 0.18 | 0.18 | 99 | 1011.6 |
| 20260904031307 | 16 | 296 | 0.0 | 0.0 | 0.00 | 0.18 | 0.18 | 99 | 1011.4 |
| 20260904030803 | 16 | 323 | 0.0 | 0.0 | 0.00 | 0.18 | 0.18 | 99 | 1011.5 |
| 20260904030258 | 16 | 320 | 0.0 | 0.0 | 0.00 | 0.18 | 0.18 | 99 | 1011.6 |
| 20260904025754 | 17 | 305 | 0.0 | 0.0 | 0.00 | 0.18 | 0.18 | 99 | 1011.8 |
| 20260904025249 | 17 | 1 | 0.0 | 0.0 | 0.00 | 0.18 | 0.18 | 99 | 1012.0 |
| 20260904024743 | 17 | 302 | 0.0 | 0.0 | 0.00 | 0.18 | 0.18 | 99 | 1011.9 |
| 20260904024238 | 17 | 288 | 0.0 | 0.0 | 0.00 | 0.18 | 0.18 | 99 | 1012.0 |
| 20260904023730 | 17 | 307 | 0.0 | 0.0 | 0.00 | 0.18 | 0.18 | 99 | 1011.9 |
| 20260904023226 | 17 | 288 | 0.0 | 0.0 | 0.00 | 0.18 | 0.18 | 99 | 1012.3 |
| 20260904022725 | 17 | 292 | 0.0 | 0.0 | 0.00 | 0.18 | 0.18 | 99 | 1012.2 |
| 20260904022222 | 17 | 301 | 0.0 | 0.0 | 0.00 | 0.18 | 0.18 | 99 | 1012.2 |
| 20260904021718 | 17 | 274 | 0.0 | 0.0 | 0.00 | 0.18 | 0.18 | 99 | 1012.4 |
| 20260904021212 | 17 | 306 | 0.0 | 0.0 | 0.00 | 0.18 | 0.18 | 99 | 1012.3 |
| 20260904020708 | 17 | 303 | 0.0 | 0.0 | 0.00 | 0.18 | 0.18 | 99 | 1012.4 |
| 20260904020208 | 17 | 305 | 0.0 | 0.0 | 0.00 | 0.18 | 0.18 | 99 | 1012.4 |
| 20260904015706 | 17 | 296 | 0.0 | 0.0 | 0.00 | 0.18 | 0.18 | 99 | 1012.6 |
| 20260904015201 | 17 | 296 | 0.0 | 0.0 | 0.00 | 0.18 | 0.18 | 99 | 1012.5 |
| 20260904014700 | 17 | 312 | 0.0 | 0.0 | 0.00 | 0.18 | 0.18 | 99 | 1012.5 |
| 20260904014155 | 17 | 303 | 0.0 | 0.0 | 0.00 | 0.18 | 0.18 | 99 | 1012.6 |
| 20260904013652 | 17 | 303 | 0.0 | 0.0 | 0.00 | 0.18 | 0.18 | 99 | 1012.5 |
| 20260904013147 | 17 | 303 | 0.0 | 0.0 | 0.00 | 0.18 | 0.18 | 99 | 1012.4 |
| 20260904012643 | 17 | 296 | 0.0 | 0.0 | 0.00 | 0.18 | 0.18 | 99 | 1012.6 |
| 20260904012142 | 17 | 296 | 0.0 | 0.0 | 0.00 | 0.18 | 0.18 | 99 | 1012.5 |
| 20260904011641 | 17 | 303 | 0.0 | 0.0 | 0.00 | 0.18 | 0.18 | 99 | 1012.6 |
| 20260904011137 | 17 | 319 | 0.0 | 0.0 | 0.00 | 0.18 | 0.18 | 99 | 1012.3 |
| 20260904010632 | 17 | 315 | 0.0 | 0.0 | 0.00 | 0.18 | 0.18 | 99 | 1012.6 |
| 20260904010129 | 17 | 286 | 0.0 | 0.0 | 0.00 | 0.18 | 0.18 | 99 | 1012.5 |
| 20260904005624 | 17 | 304 | 0.0 | 0.0 | 0.00 | 0.18 | 0.18 | 99 | 1012.3 |
| 20260904005119 | 18 | 296 | 0.0 | 0.0 | 0.00 | 0.18 | 0.18 | 99 | 1012.7 |
| 20260904004615 | 17 | 302 | 0.0 | 0.0 | 0.00 | 0.18 | 0.18 | 99 | 1012.6 |
| 20260904004114 | 18 | 292 | 0.0 | 0.0 | 0.00 | 0.18 | 0.18 | 99 | 1012.2 |
| 20260904003611 | 17 | 294 | 0.0 | 0.0 | 0.00 | 0.18 | 0.18 | 99 | 1012.3 |
| 20260904003106 | 18 | 279 | 0.0 | 0.0 | 0.00 | 0.18 | 0.18 | 99 | 1012.2 |
| 20260904002602 | 17 | 300 | 0.0 | 0.0 | 0.00 | 0.18 | 0.18 | 99 | 1012.3 |
| 20260904002056 | 17 | 309 | 0.0 | 0.0 | 0.00 | 0.18 | 0.18 | 99 | 1012.3 |
| 20260904001552 | 18 | 320 | 0.0 | 0.0 | 0.00 | 0.18 | 0.18 | 99 | 1012.2 |
| 20260904001050 | 18 | 322 | 0.0 | 0.0 | 0.00 | 0.18 | 0.18 | 99 | 1012.3 |
| 20260904000545 | 18 | 293 | 0.0 | 0.0 | 0.00 | 0.18 | 0.18 | 99 | 1012.4 |
| 20260904000036 | 18 | 292 | 0.0 | 0.0 | 0.00 | 0.18 | 0.18 | 99 | 1012.1 |
| 20260903235536 | 18 | 324 | 0.0 | 0.0 | 0.00 | 0.18 | 0.18 | 99 | 1012.1 |
| 20260903235032 | 18 | 315 | 0.0 | 0.0 | 0.00 | 0.18 | 0.18 | 99 | 1012.2 |
| 20260903234527 | 18 | 299 | 0.0 | 0.0 | 0.00 | 0.18 | 0.18 | 99 | 1012.1 |
| 20260903234022 | 18 | 307 | 0.0 | 0.0 | 0.00 | 0.18 | 0.18 | 99 | 1012.2 |
| 20260903233518 | 18 | 299 | 0.0 | 0.0 | 0.00 | 0.18 | 0.18 | 99 | 1012.2 |
| 20260903233014 | 18 | 301 | 0.0 | 0.0 | 0.00 | 0.18 | 0.18 | 99 | 1012.4 |
| 20260903232509 | 18 | 304 | 0.0 | 0.0 | 0.00 | 0.18 | 0.18 | 99 | 1012.2 |
| 20260903232009 | 18 | 308 | 0.0 | 0.0 | 0.00 | 0.18 | 0.18 | 99 | 1012.2 |
| 20260903231503 | 18 | 298 | 0.0 | 0.0 | 0.00 | 0.18 | 0.18 | 99 | 1012.5 |
| 20260903230957 | 18 | 298 | 0.0 | 0.0 | 0.00 | 0.18 | 0.18 | 99 | 1012.5 |
| 20260903230454 | 18 | 298 | 0.0 | 0.0 | 0.00 | 0.18 | 0.18 | 99 | 1012.4 |
| 20260903225950 | 18 | 283 | 0.0 | 0.0 | 0.00 | 0.18 | 0.18 | 99 | 1012.5 |
| 20260903225445 | 18 | 325 | 0.0 | 0.0 | 0.00 | 0.18 | 0.18 | 99 | 1012.3 |
| 20260903224942 | 18 | 324 | 0.0 | 0.0 | 0.00 | 0.18 | 0.18 | 99 | 1012.5 |
| 20260903224437 | 18 | 296 | 0.0 | 0.0 | 0.00 | 0.18 | 0.18 | 98 | 1012.5 |
| 20260903223933 | 18 | 306 | 0.0 | 0.0 | 0.00 | 0.18 | 0.18 | 99 | 1012.5 |
| 20260903223432 | 18 | 315 | 0.0 | 0.0 | 0.00 | 0.18 | 0.18 | 98 | 1012.3 |
| 20260903222931 | 18 | 309 | 0.0 | 0.0 | 0.00 | 0.18 | 0.18 | 98 | 1012.5 |
| 20260903222427 | 18 | 310 | 0.0 | 0.0 | 0.00 | 0.18 | 0.18 | 97 | 1012.3 |
| 20260903221921 | 18 | 314 | 0.0 | 0.0 | 0.00 | 0.18 | 0.18 | 97 | 1012.6 |
| 20260903221420 | 18 | 308 | 0.0 | 0.0 | 0.00 | 0.18 | 0.18 | 97 | 1012.6 |
| 20260903220918 | 18 | 308 | 0.0 | 0.0 | 0.00 | 0.18 | 0.18 | 96 | 1012.5 |
| 20260903220412 | 18 | 300 | 0.0 | 0.0 | 0.00 | 0.18 | 0.18 | 97 | 1012.5 |
| 20260903215909 | 18 | 304 | 0.0 | 0.0 | 0.00 | 0.18 | 0.18 | 97 | 1012.4 |
| 20260903215407 | 18 | 308 | 0.0 | 0.0 | 0.00 | 0.18 | 0.18 | 97 | 1012.5 |
| 20260903214905 | 18 | 298 | 0.0 | 0.0 | 0.00 | 0.18 | 0.18 | 98 | 1012.5 |
| 20260903214401 | 18 | 310 | 0.0 | 0.0 | 0.00 | 0.18 | 0.18 | 96 | 1012.5 |
| 20260903213901 | 18 | 301 | 0.0 | 0.0 | 0.00 | 0.18 | 0.18 | 96 | 1012.3 |
| 20260903213356 | 18 | 314 | 0.0 | 0.0 | 0.00 | 0.18 | 0.18 | 96 | 1012.5 |
| 20260903212852 | 18 | 289 | 0.0 | 0.0 | 0.00 | 0.18 | 0.18 | 96 | 1012.4 |
| 20260903212348 | 18 | 302 | 0.0 | 0.0 | 0.00 | 0.18 | 0.18 | 96 | 1012.6 |
| 20260903211847 | 18 | 298 | 0.0 | 0.0 | 0.00 | 0.18 | 0.18 | 96 | 1012.5 |
| 20260903211343 | 18 | 299 | 0.0 | 0.0 | 0.00 | 0.18 | 0.18 | 96 | 1012.5 |
| 20260903210839 | 18 | 294 | 0.0 | 0.0 | 0.00 | 0.18 | 0.18 | 96 | 1012.6 |
| 20260903210333 | 18 | 288 | 0.0 | 0.0 | 0.00 | 0.18 | 0.18 | 97 | 1012.6 |
| 20260903205833 | 18 | 292 | 0.0 | 0.0 | 0.00 | 0.18 | 0.18 | 97 | 1012.6 |
| 20260903205333 | 18 | 304 | 0.0 | 0.0 | 0.00 | 0.18 | 0.18 | 97 | 1012.4 |
| 20260903204828 | 18 | 286 | 0.0 | 0.0 | 0.00 | 0.18 | 0.18 | 98 | 1012.7 |
| 20260903204324 | 18 | 319 | 0.0 | 0.0 | 0.00 | 0.18 | 0.18 | 97 | 1012.6 |
| 20260903203819 | 18 | 91 | 0.0 | 1.6 | 0.00 | 0.18 | 0.18 | 97 | 1012.7 |
| 20260903203315 | 18 | 295 | 0.0 | 0.0 | 0.00 | 0.18 | 0.18 | 98 | 1012.6 |
| 20260903202814 | 18 | 313 | 0.0 | 0.0 | 0.00 | 0.18 | 0.18 | 98 | 1012.8 |
| 20260903202311 | 18 | 332 | 0.0 | 0.0 | 0.00 | 0.18 | 0.18 | 98 | 1012.6 |
| 20260903201810 | 18 | 301 | 0.0 | 0.0 | 0.00 | 0.18 | 0.18 | 98 | 1012.7 |
| 20260903201305 | 18 | 272 | 0.0 | 1.6 | 0.00 | 0.18 | 0.18 | 98 | 1012.7 |
| 20260903200804 | 18 | 88 | 1.6 | 3.2 | 0.00 | 0.18 | 0.18 | 97 | 1012.7 |
| 20260903200259 | 18 | 291 | 0.0 | 0.0 | 0.00 | 0.18 | 0.18 | 98 | 1012.7 |
| 20260903195754 | 18 | 279 | 0.0 | 0.0 | 0.00 | 0.18 | 0.18 | 97 | 1012.7 |
| 20260903195250 | 18 | 268 | 0.0 | 0.0 | 0.00 | 0.18 | 0.18 | 98 | 1012.9 |
| 20260903194745 | 18 | 344 | 0.0 | 0.0 | 0.00 | 0.18 | 0.18 | 97 | 1013.2 |
| 20260903194241 | 18 | 204 | 1.6 | 1.6 | 0.00 | 0.18 | 0.18 | 97 | 1012.9 |
| 20260903193736 | 18 | 268 | 1.6 | 1.6 | 0.00 | 0.18 | 0.18 | 97 | 1012.8 |
| 20260903193232 | 18 | 21 | 1.6 | 1.6 | 0.00 | 0.18 | 0.18 | 96 | 1013.2 |
| 20260903192728 | 19 | 306 | 0.0 | 0.0 | 0.00 | 0.18 | 0.18 | 97 | 1013.2 |
| 20260903192223 | 18 | 315 | 0.0 | 0.0 | 0.00 | 0.18 | 0.18 | 97 | 1013.3 |
| 20260903191719 | 18 | 330 | 0.0 | 0.0 | 0.00 | 0.18 | 0.18 | 97 | 1013.2 |
| 20260903191214 | 18 | 307 | 0.0 | 0.0 | 0.00 | 0.18 | 0.18 | 98 | 1013.2 |
| 20260903190703 | 18 | 317 | 0.0 | 0.0 | 0.00 | 0.18 | 0.18 | 98 | 1013.3 |
| 20260903190203 | 18 | 359 | 0.0 | 0.0 | 0.00 | 0.18 | 0.18 | 99 | 1013.4 |
| 20260903185658 | 18 | 313 | 0.0 | 0.0 | 0.00 | 0.18 | 0.18 | 99 | 1013.6 |
| 20260903185153 | 18 | 335 | 1.6 | 1.6 | 0.00 | 0.18 | 0.18 | 99 | 1013.5 |
| 20260903184649 | 18 | 44 | 1.6 | 3.2 | 0.00 | 0.18 | 0.18 | 99 | 1013.5 |
| 20260903184145 | 18 | 257 | 1.6 | 1.6 | 0.00 | 0.18 | 0.18 | 99 | 1013.6 |
| 20260903183644 | 18 | 16 | 3.2 | 3.2 | 0.00 | 0.18 | 0.18 | 99 | 1013.8 |
| 20260903183139 | 17 | 340 | 0.0 | 0.0 | 0.00 | 0.18 | 0.18 | 99 | 1013.9 |
| 20260903182638 | 17 | 311 | 0.0 | 0.0 | 0.00 | 0.18 | 0.18 | 99 | 1013.9 |
| 20260903182134 | 17 | 194 | 0.0 | 0.0 | 0.00 | 0.18 | 0.18 | 99 | 1013.8 |
| 20260903181632 | 17 | 284 | 1.6 | 3.2 | 0.00 | 0.18 | 0.18 | 99 | 1014.0 |
| 20260903181127 | 17 | 311 | 0.0 | 1.6 | 0.00 | 0.18 | 0.18 | 99 | 1013.8 |
| 20260903180622 | 17 | 291 | 0.0 | 0.0 | 0.00 | 0.18 | 0.18 | 99 | 1014.0 |
| 20260903180117 | 17 | 290 | 1.6 | 1.6 | 0.00 | 0.18 | 0.18 | 99 | 1014.0 |
| 20260903175616 | 17 | 18 | 3.2 | 3.2 | 0.00 | 0.18 | 0.18 | 99 | 1014.0 |
| 20260903175115 | 17 | 16 | 1.6 | 3.2 | 0.00 | 0.18 | 0.18 | 99 | 1013.9 |
| 20260903174610 | 17 | 64 | 3.2 | 4.8 | 0.00 | 0.18 | 0.18 | 99 | 1013.7 |
| 20260903174105 | 17 | 323 | 0.0 | 0.0 | 0.00 | 0.18 | 0.18 | 99 | 1013.9 |
| 20260903173559 | 17 | 58 | 3.2 | 4.8 | 0.00 | 0.18 | 0.18 | 99 | 1013.9 |
| 20260903173056 | 17 | 188 | 1.6 | 3.2 | 0.00 | 0.18 | 0.18 | 99 | 1013.9 |
| 20260903172550 | 17 | 170 | 1.6 | 1.6 | 0.00 | 0.18 | 0.18 | 99 | 1013.8 |
| 20260903172046 | 17 | 48 | 1.6 | 1.6 | 0.00 | 0.18 | 0.18 | 99 | 1013.7 |
| 20260903171540 | 17 | 325 | 1.6 | 1.6 | 0.00 | 0.18 | 0.18 | 99 | 1013.8 |
| 20260903171036 | 17 | 7 | 0.0 | 1.6 | 0.00 | 0.18 | 0.18 | 99 | 1014.0 |
| 20260903170534 | 17 | 132 | 1.6 | 3.2 | 0.00 | 0.18 | 0.18 | 99 | 1014.0 |
| 20260903170030 | 17 | 272 | 1.6 | 1.6 | 0.00 | 0.18 | 0.18 | 99 | 1014.0 |
| 20260903165527 | 17 | 357 | 3.2 | 3.2 | 0.00 | 0.18 | 0.18 | 99 | 1014.0 |
| 20260903165023 | 17 | 49 | 1.6 | 1.6 | 0.00 | 0.18 | 0.18 | 99 | 1014.0 |
| 20260903164518 | 17 | 35 | 1.6 | 1.6 | 0.00 | 0.18 | 0.18 | 99 | 1014.1 |
| 20260903164014 | 17 | 26 | 0.0 | 0.0 | 0.00 | 0.18 | 0.18 | 99 | 1014.2 |
| 20260903163509 | 17 | 330 | 1.6 | 1.6 | 0.00 | 0.18 | 0.18 | 99 | 1014.1 |
| 20260903163005 | 17 | 36 | 3.2 | 3.2 | 0.00 | 0.18 | 0.18 | 99 | 1014.3 |
| 20260903162501 | 17 | 51 | 1.6 | 3.2 | 0.00 | 0.18 | 0.18 | 99 | 1014.4 |